Location: Mareeba Aerodrome
(17.0701°S, 145.4240°E)
Time: 09:24:30
(UTC+10:00)

N. Korean satellite - Visible Passes

Search period start: 01 October 2022 00:00
Search period end: 11 October 2022 00:00
Orbit: 427 x 468 km, 97.3° (Epoch: 30 September)

Date Brightness Start Highest point End Pass type
(mag) Time Alt. Az. Time Alt. Az. Time Alt. Az.
01 Oct 9.8 04:15:22 10° ENE 04:16:55 13° ESE 04:18:30 10° SE visible
02 Oct 6.3 05:10:19 10° N 05:13:34 63° W 05:16:55 10° SSW visible
03 Oct 8.6 04:34:59 10° NE 04:37:52 27° ESE 04:40:46 10° SSE visible
04 Oct 7.4 05:31:43 10° NNW 05:34:32 26° W 05:37:25 10° SW visible
05 Oct 6.8 04:55:22 10° NNE 04:58:39 66° ESE 05:02:02 10° S visible
06 Oct 9.6 04:20:44 10° ENE 04:22:52 16° ESE 04:25:01 10° SE visible
07 Oct 6.5 05:16:05 10° N 05:19:18 49° W 05:22:38 10° SSW visible
08 Oct 8.2 04:40:18 10° NE 04:43:22 34° ESE 04:46:30 10° S visible
10 Oct 6.4 05:00:24 10° NNE 05:03:44 82° ESE 05:07:09 10° S visible
